Location: Antioch Baptist Church
(32.6696°N, 85.7327°W)
Time: 21:07:36
(UTC+00:00)

ERS-2 - Pass Details

Date: 14 July 2020
Orbit: 494 x 498 km, 98.5° (Epoch: 13 August)

Event Time Altitude Azimuth Distance (km) Brightness Sun altitude
Exits shadow 08:44:52 - 139° (SE) 2,167 5.3 -21.4°
Reaches altitude 10° 08:46:07 10° 131° (SE) 1,688 4.8 -21.2°
Maximum altitude 08:49:14 27° 72° (ENE) 974 4.2 -20.7°
Drops below altitude 10° 08:52:21 10° 13° (NNE) 1,695 5.6 -20.3°
Sets 08:54:37 0° 1° (N) 2,581 6.4 -19.9°
